Location: Sankt+Gallen
(47.4262°N, 9.3755°E)
Time: 09:35:08
(UTC+01:00)

ARIANE 6 FM1 Upper Stage - Pass Details

Date: 24 February 2026
Orbit: 523 x 606 km, 62.0° (Epoch: 14 March)

Event Time Altitude Azimuth Distance (km) Brightness Sun altitude
Rises 18:37:45 0° 301° (WNW) 2,658 7.1 -7.2°
Reaches altitude 10° 18:40:49 10° 276° (W) 1,768 6.8 -7.7°
Maximum altitude 18:42:53 14° 244° (WSW) 1,533 6.1 -8.0°
Drops below altitude 10° 18:44:58 10° 212° (SSW) 1,772 5.8 -8.4°
Sets 18:48:03 0° 187° (S) 2,668 6.3 -8.9°
